Regional Weather Roundup
Issued by NWS

Home | Current Version | Previous Version | Graphics & Text | Print | Product List | Glossary On
Versions: 1 2 3 4 5 6 7 8 9 10 11 12 13 14 15 16 17 18 19 20 21 22 23 24 25 26 27 28 29 30 31 32 33 34 35 36 37 38 39 40 41 42 43 44 45 46 47 48 49 50
000
ASUS43 KOAX 050402
RWRNE

WEATHER ROUNDUP FOR NEBRASKA
NATIONAL WEATHER SERVICE OMAHA NE
1100 PM CDT TUE AUG 04 2015

NOTES: SATELLITE DATA IS BEING USED TO AUGMENT CLOUD COVER ABOVE
       12000 FEET.
       "FAIR" INDICATES FEW OR NO CLOUDS BELOW 12,000 FEET WITH NO
       SIGNIFICANT WEATHER AND/OR OBSTRUCTIONS TO VISIBILITY.

  * THESE STATIONS DO NOT REPORT WEATHER SUCH AS RAIN...SNOW OR FOG.

NEZ001>004-019>022-054>056-050500-
NEBRASKA PANHANDLE

CITY           SKY/WX    TMP DP  RH WIND       PRES   REMARKS
SCOTTSBLUFF    MOCLDY    67  64  90 CALM      30.06R
ALLIANCE       MOCLDY    62  59  90 S5        30.06R
CHADRON        CLOUDY    67  60  78 CALM      30.01R
KIMBALL        PTCLDY    60  54  80 CALM      30.11R
SIDNEY         PTCLDY    62  58  86 E7        30.10R
$$

NEZ057>060-069>072-079>082-050500-
SOUTHWEST NEBRASKA

CITY           SKY/WX    TMP DP  RH WIND       PRES   REMARKS
NORTH PLATTE   PTCLDY    63  61  93 CALM      30.03R
IMPERIAL       PTCLDY    63  61  93 NE6       30.05R
LEXINGTON      PTCLDY    64  63  96 N6        30.00S
MCCOOK         PTCLDY    63  62  97 CALM      30.01R
OGALLALA       PTCLDY    65  63  91 E7        30.05R
$$

NEZ005>010-023>029-035>040-094-050500-
NORTH CENTRAL NEBRASKA

CITY           SKY/WX    TMP DP  RH WIND       PRES   REMARKS
AINSWORTH      CLOUDY    69  65  89 SE6       30.03R
BROKEN BOW     CLOUDY    66  63  90 CALM      30.00S
O`NEILL        CLOUDY    70  65  85 SE9       30.01R
ORD            CLOUDY    65  63  93 E7        29.99R
THEDFORD       MOCLDY    65  63  91 E3        30.04R
$$

NEZ041-046>049-061>064-073>077-083>087-050500-
SOUTH CENTRAL NEBRASKA

CITY           SKY/WX    TMP DP  RH WIND       PRES   REMARKS
GRAND ISLAND   CLOUDY    65  64  97 CALM      30.00R
AURORA         CLOUDY    65  65 100 CALM      29.99R
HASTINGS       CLOUDY    66  65  96 N5        30.00R
HEBRON         CLOUDY    70  67  90 CALM      29.97R
HOLDREGE       MOCLDY    62  61  95 N9        30.01R
KEARNEY *      CLOUDY    64  61  88 CALM      30.01S
YORK           CLOUDY    66  66 100 CALM      29.97S
$$

NEZ011>018-030>034-042>045-050500-
NORTHEAST NEBRASKA

CITY           SKY/WX    TMP DP  RH WIND       PRES   REMARKS
NORFOLK        CLOUDY    69  65  86 E3        29.99S
ALBION         CLOUDY    67  64  91 S5        30.00R
BLAIR          CLOUDY    69  65  88 E6        29.97S
COLUMBUS *     CLOUDY    70  63  78 E3        29.98R
FREMONT        CLOUDY    71  67  87 E5        29.97S
TEKAMAH        CLOUDY    71  64  78 E3        29.97S
WAYNE          CLOUDY    70  64  79 S3        30.02R
$$

NEZ050>053-065>068-078-088>093-050500-
SOUTHEAST NEBRASKA

CITY           SKY/WX    TMP DP  RH WIND       PRES   REMARKS
LINCOLN        CLOUDY    73  68  84 S6        29.96S
OMAHA EPPLEY   CLOUDY    72  67  84 SE10      29.96F
BEATRICE       CLOUDY    71  69  94 SE3       29.95F
FALLS CITY     CLOUDY    69  68  96 CALM      29.96R
NEBRASKA CITY  CLOUDY    69  68  96 E5        29.97S
PLATTSMOUTH    CLOUDY    69  68  95 E5        29.97S
$$

NEZ044-045-051>053-067-050500-
OMAHA AREA

CITY           SKY/WX    TMP DP  RH WIND       PRES   REMARKS
OMAHA EPPLEY   CLOUDY    72  67  84 SE10      29.96F
BLAIR          CLOUDY    69  65  88 E6        29.97S
FREMONT        CLOUDY    71  67  87 E5        29.97S
MILLARD        CLOUDY    72  68  89 E6        29.96S
OFFUTT AFB     CLOUDY    70  67  89 E6        29.96S
PLATTSMOUTH    CLOUDY    69  68  95 E5        29.97S
WAHOO          FAIR      70  68  95 E3        29.96S
$$



USA.gov is the U.S. government's official web portal to all federal, state and local government web resources and services.